Regional Weather Roundup
Issued by NWS

Home | Current Version | Previous Version | Text Only | Print | Product List | Glossary On
Versions: 1 2 3 4 5 6 7 8 9 10 11 12 13 14 15 16 17 18 19 20 21 22 23 24 25 26 27 28 29 30 31 32 33 34 35 36 37 38 39 40 41 42 43 44 45 46 47 48 49 50
000
ASUS43 KFSD 190002
RWRSD

WEATHER ROUNDUP FOR SOUTH DAKOTA
NATIONAL WEATHER SERVICE SIOUX FALLS SD
700 PM CDT SAT APR 18 2015

NOTE: "FAIR" INDICATES FEW OR NO CLOUDS BELOW 12,000 FEET WITH NO
SIGNIFICANT WEATHER AND/OR OBSTRUCTIONS TO VISIBILITY.


SDZ001>005-009-010-012>017-190100-
NORTHWEST AND NORTH CENTRAL SOUTH DAKOTA

CITY           SKY/WX    TMP DP  RH WIND       PRES   REMARKS
BUFFALO          N/A     51  41  68 W7        29.87R
FAITH            N/A     46  43  89 N13       29.92R
MOBRIDGE       CLOUDY    51  44  77 N16       29.86F
$$

SDZ012>016-024>037-041>051-057-063-072>074-190100-
SOUTHWEST AND SOUTH CENTRAL SOUTH DAKOTA

CITY           SKY/WX    TMP DP  RH WIND       PRES   REMARKS
RAPID CTY ARPT CLOUDY    46  44  93 NW10      29.91F
PIERRE         CLOUDY    51  49  92 N9        29.85F
CUSTER         CLOUDY    43  38  82 N3        29.92R
ELLSWORTH AFB  CLOUDY    46  45  99 N9        29.91S
PHILIP         CLOUDY    55  40  56 NE12      29.87S
PINE RIDGE     CLOUDY    51  43  74 NW12      29.90R
WINNER         FAIR      60  54  80 N10       29.82F
$$

SDZ004>011-016>023-039-040-190100-
NORTHEAST SOUTH DAKOTA

CITY           SKY/WX    TMP DP  RH WIND       PRES   REMARKS
ABERDEEN       CLOUDY    64  41  42 SW7       29.86S
WATERTOWN      LGT RAIN  57  51  80 S5        29.86S
BROOKINGS      CLOUDY    57  55  94 SE15      29.87S
SISSETON         N/A     70  27  20 SE9       29.84F
$$

SDZ017-020-022-023-036>040-048>070-190100-
SOUTHEAST SOUTH DAKOTA

CITY           SKY/WX    TMP DP  RH WIND       PRES   REMARKS
SIOUX FALLS    CLOUDY    58  55  90 E12       29.83F
HURON          CLOUDY    55  54  96 E5        29.84F FOG
MITCHELL       CLOUDY    59  56  89 E7        29.84S
YANKTON        CLOUDY    61  55  82 E9        29.80F
$$

ABBREVIATIONS USED IN REMARKS
   TC - TEMPERATURE IN CELSIUS
  WCI - WIND CHILL INDEX
   HX - HEAT INDEX
  VSB - VISIBILITY




USA.gov is the U.S. government's official web portal to all federal, state and local government web resources and services.